EW1334 Weather Reports


time (UTC)temp
C
wind
direction
speed
KPH
gust
KPH
rain 1hr
cm
rain 24hr
cm
rain mn
cm
humidity
%
barometer
mb
20260504081526 22 337 12.9 29.0 0.00 0.00 0.00 33 1013.0
20260504044527 15 229 8.0 19.3 0.00 0.00 0.00 45 1013.1
20260504043027 15 191 4.8 14.5 0.00 0.00 0.00 47 1013.0
20260504041530 13 239 6.4 12.9 0.00 0.00 0.00 49 1013.0
20260504040014 13 215 3.2 8.0 0.00 0.00 0.00 51 1013.0
20260504034509 12 199 1.6 8.0 0.00 0.00 0.00 53 1013.1
20260504033006 12 208 3.2 9.7 0.00 0.00 0.00 54 1013.1
20260504031505 11 200 4.8 8.0 0.00 0.00 0.00 56 1013.0
20260504030001 11 213 3.2 8.0 0.00 0.00 0.00 58 1013.1
20260504024605 11 175 3.2 8.0 0.00 0.00 0.00 60 1013.1
20260504023059 11 178 1.6 6.4 0.00 0.00 0.00 60 1013.1
20260504021558 11 193 1.6 4.8 0.00 0.00 0.00 59 1013.1
20260504020110 11 187 1.6 4.8 0.00 0.00 0.00 60 1013.2
20260504014556 12 145 1.6 4.8 0.00 0.00 0.00 58 1013.1
20260504013057 12 165 1.6 3.2 0.00 0.00 0.00 56 1013.1
20260504011554 12 210 1.6 4.8 0.00 0.00 0.00 56 1013.3
20260504010055 12 195 1.6 6.4 0.00 0.00 0.00 55 1013.2
20260504004554 13 220 3.2 6.4 0.00 0.00 0.00 55 1013.1
20260504003053 13 232 1.6 6.4 0.00 0.00 0.00 55 1013.1
20260504001555 12 186 3.2 6.4 0.00 0.00 0.00 56 1013.2
20260504000051 12 199 1.6 4.8 0.00 0.00 0.00 56 1013.1
20260503234605 11 206 1.6 6.4 0.00 0.00 0.00 60 1013.2
20260503233049 10 46 0.0 3.2 0.00 0.00 0.00 62 1013.2
20260503231545 10 117 0.0 4.8 0.00 0.00 0.00 63 1013.3
20260503230042 10 117 0.0 1.6 0.00 0.00 0.00 60 1013.4
20260503224539 11 89 1.6 3.2 0.00 0.00 0.00 58 1013.3
20260503223036 11 135 0.0 3.2 0.00 0.00 0.00 58 1013.5
20260503221536 12 223 0.0 1.6 0.00 0.00 0.00 56 1013.5
20260503220030 12 269 0.0 3.2 0.00 0.00 0.00 54 1013.5
20260503214529 13 46 0.0 1.6 0.00 0.00 0.00 50 1013.5
20260503213030 13 178 1.6 6.4 0.00 0.00 0.00 51 1013.5
20260503211529 13 197 0.0 1.6 0.00 0.00 0.00 50 1013.5
20260503210028 13 46 0.0 3.2 0.00 0.00 0.00 50 1013.4
20260503204527 14 178 0.0 3.2 0.00 0.00 0.00 48 1013.5
20260503203026 15 331 0.0 1.6 0.00 0.00 0.00 45 1013.5
20260503201526 15 46 0.0 1.6 0.00 0.00 0.00 44 1013.4
20260503200025 16 89 0.0 3.2 0.00 0.00 0.00 43 1013.4
20260503194525 16 178 0.0 3.2 0.00 0.00 0.00 41 1013.4
20260503193023 17 56 0.0 3.2 0.00 0.00 0.00 38 1013.4
20260503191529 18 167 1.6 4.8 0.00 0.00 0.00 37 1013.4
20260503190022 20 145 1.6 3.2 0.00 0.00 0.00 34 1013.3
20260503184523 21 152 1.6 6.4 0.00 0.00 0.00 31 1013.3
20260503183020 21 195 3.2 4.8 0.00 0.00 0.00 29 1013.2
20260503181520 22 178 3.2 6.4 0.00 0.00 0.00 28 1013.2
20260503180022 23 187 3.2 8.0 0.00 0.00 0.00 26 1013.1
20260503174519 23 201 3.2 8.0 0.00 0.00 0.00 25 1013.0
20260503173027 24 202 3.2 14.5 0.00 0.00 0.00 24 1013.0
20260503171518 25 135 6.4 19.3 0.00 0.00 0.00 23 1013.0